Content
SEND FEEDBACK

Daily
Averages
Monthly
Summary
Spain

POZUELO DE ALARCON, SPAIN


Home > Europe > Spain
Elevation: 2156 feet     Latitude: 40 24N     Longitude: 003 42W

WEATHER
 
SELECT A DAY
Number of Records: 156,652;   Date Range: 7/1/96 - 7/7/14
 
SHARE

PRINT THIS DATA

[ ← Previous Day ]
WEATHER ALMANAC - FEBRUARY 14, 2013
[ Next Day → ]
[ °C ]   °F
Weather ElementAverageHighLow
Temperature51.5 °F59 °F (3:00 pm)37.4 °F (7:30 am)
Dewpoint38.8 °F41 °F (4:30 pm)37.4 °F (7:30 am)
Humidity64.2 %100 % (7:30 am)48 % (3:00 pm)
Barometer30.20 in30.24 in (7:30 am)30.15 in (4:30 pm)
Wind Speed1.2 mph4.6 mph (1:00 pm)
Weather ElementAverage
Wind DirectionNNE (19.2 °)

Weather ElementTotal
Precipitation---
Heating Degree Days16.8 (Base 65)
Averaged from 26 records on February 14, 2013
WEATHER CONDITIONS BREAKOUT
WIND DIRECTION BREAKOUT
WEATHER BY HOUR - FEBRUARY 14, 2013
[ °C ]   °F
Local TimeTemperatureDewpointHumidityBarometerVisibilityWind DirectionWind SpeedGust SpeedPrecipitationEventsConditions
7:30 AM37.4 °F37.4 °F100 %30.24 inCalmClear
8:00 AM37.4 °F37.4 °F100 %30.24 inCalmClear
8:30 AM37.4 °F37.4 °F100 %30.24 inCalmClear
9:00 AM39.2 °F39.2 °F100 %30.24 inCalmClear
9:30 AM44.6 °F39.2 °F81 %30.24 inCalmClear
10:00 AM44.6 °F39.2 °F81 %30.24 inVariable1.2 mphClear
10:30 AM46.4 °F37.4 °F71 %30.24 inCalmClear
11:00 AM48.2 °F39.2 °F71 %30.24 inVariable2.3 mphClear
11:30 AM51.8 °F39.2 °F62 %30.24 inCalmClear
12:00 PM55.4 °F39.2 °F54 %30.24 inCalmClear
12:30 PM51.8 °F37.4 °F58 %30.24 inESE (120°)3.5 mphClear
1:00 PM53.6 °F39.2 °F58 %30.24 inESE (120°)4.6 mphClear
1:30 PM55.4 °F39.2 °F54 %30.24 inVariable1.2 mphClear
2:00 PM57.2 °F39.2 °F51 %30.21 inCalmClear
2:30 PM57.2 °F39.2 °F51 %30.18 inVariable1.2 mphClear
3:00 PM59.0 °F39.2 °F48 %30.18 inVariable1.2 mphClear
3:30 PM57.2 °F37.4 °F48 %30.18 inVariable1.2 mphClear
4:00 PM57.2 °F39.2 °F51 %30.18 inWest (260°)3.5 mphClear
4:30 PM59.0 °F41.0 °F51 %30.15 inVariable2.3 mphClear
5:00 PM59.0 °F39.2 °F48 %30.15 inVariable2.3 mphClear
5:30 PM59.0 °F39.2 °F48 %30.15 inVariable2.3 mphClear
6:00 PM57.2 °F39.2 °F51 %30.15 inVariable2.3 mphClear
6:30 PM57.2 °F39.2 °F51 %30.15 inVariable1.2 mphClear
7:00 PM53.6 °F39.2 °F58 %30.15 inCalmClear
7:30 PM51.8 °F37.4 °F58 %30.15 inCalmClear
8:00 PM50.0 °F39.2 °F66 %30.18 inCalmClear
Hourly data recorded from LEVS, located miles away from Pozuelo de Alarcon, Spain







STORIES FROM OUR PARTNERS